| time (UTC) | temp F | wind direction | speed MPH | gust MPH | rain 1hr in | rain 24hr in | rain mn in | humidity % | barometer mb |
| 20260506061829 | 66 | 200 | 13.0 | 0.0 | 0.00 | 0.00 | 0.00 | 46 | 1013.0 |
| 20260506060331 | 66 | 200 | 13.0 | 0.0 | 0.00 | 0.00 | 0.00 | 46 | 1013.0 |
| 20260506050343 | 59 | 150 | 3.0 | 0.0 | 0.00 | 0.00 | 0.00 | 59 | 1013.0 |
| 20260506044845 | 55 | 150 | 5.0 | 0.0 | 0.00 | 0.00 | 0.00 | 63 | 1013.0 |
| 20260506043333 | 55 | 130 | 6.0 | 0.0 | 0.00 | 0.00 | 0.00 | 63 | 1013.0 |
| 20260506041830 | 54 | 110 | 7.0 | 0.0 | 0.00 | 0.00 | 0.00 | 63 | 1013.0 |
| 20260506040329 | 54 | 110 | 7.0 | 0.0 | 0.00 | 0.00 | 0.00 | 63 | 1013.0 |
| 20260506034830 | 50 | 110 | 5.0 | 0.0 | 0.00 | 0.00 | 0.00 | 71 | 1013.0 |
| 20260506033329 | 50 | 110 | 5.0 | 0.0 | 0.00 | 0.00 | 0.00 | 71 | 1013.0 |
| 20260506031829 | 52 | 120 | 5.0 | 0.0 | 0.00 | 0.00 | 0.00 | 67 | 1013.0 |
| 20260506030329 | 52 | 120 | 5.0 | 0.0 | 0.00 | 0.00 | 0.00 | 67 | 1013.0 |
| 20260506024829 | 52 | 100 | 7.0 | 0.0 | 0.00 | 0.00 | 0.00 | 67 | 1012.0 |
| 20260506023329 | 52 | 100 | 7.0 | 0.0 | 0.00 | 0.00 | 0.00 | 67 | 1012.0 |
| 20260506021829 | 52 | 110 | 5.0 | 0.0 | 0.00 | 0.00 | 0.00 | 67 | 1012.0 |
| 20260506020329 | 52 | 110 | 5.0 | 0.0 | 0.00 | 0.00 | 0.00 | 67 | 1012.0 |
| 20260506014829 | 50 | 1.0 | 0.0 | 0.00 | 0.00 | 0.00 | 67 | 1012.0 | |
| 20260506013330 | 50 | 1.0 | 0.0 | 0.00 | 0.00 | 0.00 | 67 | 1012.0 | |
| 20260506011830 | 54 | 180 | 6.0 | 0.0 | 0.00 | 0.00 | 0.00 | 58 | 1012.0 |
| 20260506010329 | 54 | 180 | 6.0 | 0.0 | 0.00 | 0.00 | 0.00 | 58 | 1012.0 |
| 20260506004829 | 52 | 150 | 3.0 | 0.0 | 0.00 | 0.00 | 0.00 | 62 | 1012.0 |
| 20260506003448 | 52 | 150 | 3.0 | 0.0 | 0.00 | 0.00 | 0.00 | 62 | 1012.0 |
| 20260506001830 | 52 | 270 | 3.0 | 0.0 | 0.00 | 0.00 | 0.00 | 62 | 1012.0 |
| 20260506000330 | 52 | 270 | 3.0 | 0.0 | 0.00 | 0.00 | 0.00 | 62 | 1012.0 |
| 20260505234829 | 54 | 2.0 | 0.0 | 0.00 | 0.00 | 0.00 | 63 | 1012.0 | |
| 20260505233329 | 54 | 2.0 | 0.0 | 0.00 | 0.00 | 0.00 | 63 | 1012.0 | |
| 20260505231829 | 59 | 100 | 8.0 | 0.0 | 0.00 | 0.00 | 0.00 | 48 | 1011.0 |
| 20260505230329 | 59 | 100 | 8.0 | 0.0 | 0.00 | 0.00 | 0.00 | 48 | 1011.0 |
| 20260505224829 | 59 | 100 | 9.0 | 0.0 | 0.00 | 0.00 | 0.00 | 48 | 1011.0 |
| 20260505223329 | 59 | 100 | 9.0 | 0.0 | 0.00 | 0.00 | 0.00 | 48 | 1011.0 |
| 20260505221826 | 59 | 110 | 8.0 | 0.0 | 0.00 | 0.00 | 0.00 | 48 | 1011.0 |
| 20260505220329 | 59 | 110 | 8.0 | 0.0 | 0.00 | 0.00 | 0.00 | 48 | 1011.0 |
| 20260505214830 | 61 | 110 | 7.0 | 0.0 | 0.00 | 0.00 | 0.00 | 45 | 1011.0 |
| 20260505213329 | 61 | 110 | 7.0 | 0.0 | 0.00 | 0.00 | 0.00 | 45 | 1011.0 |
| 20260505211829 | 61 | 100 | 8.0 | 0.0 | 0.00 | 0.00 | 0.00 | 42 | 1011.0 |
| 20260505210329 | 61 | 100 | 8.0 | 0.0 | 0.00 | 0.00 | 0.00 | 42 | 1011.0 |
| 20260505204831 | 63 | 110 | 7.0 | 0.0 | 0.00 | 0.00 | 0.00 | 39 | 1011.0 |
| 20260505203329 | 63 | 110 | 7.0 | 0.0 | 0.00 | 0.00 | 0.00 | 39 | 1011.0 |
| 20260505201900 | 66 | 140 | 7.0 | 0.0 | 0.00 | 0.00 | 0.00 | 32 | 1011.0 |
| 20260505200330 | 66 | 140 | 7.0 | 0.0 | 0.00 | 0.00 | 0.00 | 32 | 1011.0 |
| 20260505194829 | 63 | 140 | 6.0 | 0.0 | 0.00 | 0.00 | 0.00 | 37 | 1011.0 |
| 20260505193329 | 63 | 140 | 6.0 | 0.0 | 0.00 | 0.00 | 0.00 | 37 | 1011.0 |
| 20260505191829 | 64 | 170 | 8.0 | 0.0 | 0.00 | 0.00 | 0.00 | 34 | 1011.0 |
| 20260505190329 | 64 | 170 | 8.0 | 0.0 | 0.00 | 0.00 | 0.00 | 34 | 1011.0 |
| 20260505184830 | 63 | 200 | 8.0 | 0.0 | 0.00 | 0.00 | 0.00 | 39 | 1011.0 |
| 20260505183329 | 63 | 200 | 8.0 | 0.0 | 0.00 | 0.00 | 0.00 | 39 | 1011.0 |
| 20260505181830 | 66 | 200 | 8.0 | 0.0 | 0.00 | 0.00 | 0.00 | 32 | 1011.0 |
| 20260505180329 | 66 | 200 | 8.0 | 0.0 | 0.00 | 0.00 | 0.00 | 32 | 1011.0 |
| 20260505174827 | 72 | 210 | 8.0 | 0.0 | 0.00 | 0.00 | 0.00 | 27 | 1011.0 |
| 20260505173329 | 72 | 210 | 8.0 | 0.0 | 0.00 | 0.00 | 0.00 | 27 | 1011.0 |
| 20260505171829 | 75 | 220 | 9.0 | 0.0 | 0.00 | 0.00 | 0.00 | 22 | 1011.0 |
| 20260505170329 | 75 | 220 | 9.0 | 0.0 | 0.00 | 0.00 | 0.00 | 22 | 1011.0 |
| 20260505164829 | 79 | 220 | 13.0 | 0.0 | 0.00 | 0.00 | 0.00 | 18 | 1011.0 |
| 20260505163329 | 79 | 220 | 13.0 | 0.0 | 0.00 | 0.00 | 0.00 | 18 | 1011.0 |
| 20260505161830 | 81 | 230 | 13.0 | 0.0 | 0.00 | 0.00 | 0.00 | 18 | 1011.0 |
| 20260505160330 | 81 | 230 | 13.0 | 0.0 | 0.00 | 0.00 | 0.00 | 18 | 1011.0 |
| 20260505153329 | 81 | 220 | 14.0 | 0.0 | 0.00 | 0.00 | 0.00 | 18 | 1011.0 |
| 20260505151837 | 81 | 230 | 13.0 | 0.0 | 0.00 | 0.00 | 0.00 | 18 | 1011.0 |
| 20260505150330 | 81 | 230 | 13.0 | 0.0 | 0.00 | 0.00 | 0.00 | 18 | 1011.0 |
| 20260505140329 | 82 | 200 | 14.0 | 0.0 | 0.00 | 0.00 | 0.00 | 17 | 1012.0 |
| 20260505124829 | 82 | 200 | 11.0 | 0.0 | 0.00 | 0.00 | 0.00 | 20 | 1013.0 |
| 20260505123329 | 82 | 200 | 11.0 | 0.0 | 0.00 | 0.00 | 0.00 | 20 | 1013.0 |
| 20260505121829 | 81 | 220 | 10.0 | 0.0 | 0.00 | 0.00 | 0.00 | 20 | 1013.0 |
| 20260505120337 | 81 | 220 | 13.0 | 0.0 | 0.00 | 0.00 | 0.00 | 20 | 1014.0 |
| 20260505114837 | 81 | 220 | 13.0 | 0.0 | 0.00 | 0.00 | 0.00 | 20 | 1014.0 |
| 20260505113400 | 81 | 220 | 13.0 | 0.0 | 0.00 | 0.00 | 0.00 | 20 | 1014.0 |
| 20260505111829 | 79 | 230 | 9.0 | 0.0 | 0.00 | 0.00 | 0.00 | 21 | 1014.0 |
| 20260505110329 | 79 | 230 | 9.0 | 0.0 | 0.00 | 0.00 | 0.00 | 21 | 1014.0 |
| 20260505101830 | 77 | 240 | 8.0 | 0.0 | 0.00 | 0.00 | 0.00 | 22 | 1015.0 |
| 20260505100329 | 77 | 240 | 8.0 | 0.0 | 0.00 | 0.00 | 0.00 | 22 | 1015.0 |
| 20260505094830 | 77 | 240 | 9.0 | 0.0 | 0.00 | 0.00 | 0.00 | 24 | 1015.0 |
| 20260505093329 | 77 | 240 | 9.0 | 0.0 | 0.00 | 0.00 | 0.00 | 24 | 1015.0 |
| 20260505091829 | 77 | 220 | 6.0 | 0.0 | 0.00 | 0.00 | 0.00 | 24 | 1015.0 |
| 20260505090329 | 77 | 220 | 6.0 | 0.0 | 0.00 | 0.00 | 0.00 | 24 | 1015.0 |
| 20260505084829 | 75 | 230 | 6.0 | 0.0 | 0.00 | 0.00 | 0.00 | 25 | 1015.0 |
| 20260505083330 | 75 | 230 | 6.0 | 0.0 | 0.00 | 0.00 | 0.00 | 25 | 1015.0 |
| 20260505081830 | 73 | 220 | 5.0 | 0.0 | 0.00 | 0.00 | 0.00 | 29 | 1015.0 |
| 20260505080329 | 73 | 220 | 5.0 | 0.0 | 0.00 | 0.00 | 0.00 | 29 | 1015.0 |
| 20260505074847 | 72 | 3.0 | 0.0 | 0.00 | 0.00 | 0.00 | 31 | 1016.0 | |
| 20260505073329 | 72 | 3.0 | 0.0 | 0.00 | 0.00 | 0.00 | 31 | 1016.0 | |
| 20260505071829 | 70 | 160 | 3.0 | 0.0 | 0.00 | 0.00 | 0.00 | 38 | 1016.0 |
| 20260505070329 | 70 | 160 | 3.0 | 0.0 | 0.00 | 0.00 | 0.00 | 38 | 1016.0 |
| 20260505064829 | 64 | 110 | 3.0 | 0.0 | 0.00 | 0.00 | 0.00 | 40 | 1016.0 |